Port Edwards, WI

1:52 PM CDT on July 28, 2016 (GMT -0500)
Alexander Field South Wood County

Weather History for KISW - October, 2012

Change the Weather History Date:

Monday, October 1, 2012

  Actual Average Record
Temperature  
Mean Temperature 56 °F -  
Max Temperature 70 °F 65 °F 91 °F (1976)
Min Temperature 41 °F 40 °F 24 °F (2003)
Degree Days  
Heating Degree Days 10    
Growing Degree Days 6 (Base 50)    
Moisture  
Dew Point 43 °F    
Average Humidity 65    
Maximum Humidity 89    
Minimum Humidity 36    
Precipitation  
Precipitation 0.00 in - - ()
Sea Level Pressure  
Sea Level Pressure 29.89 in    
Wind  
Wind Speed 3 mph (South)    
Max Wind Speed 8 mph    
Max Gust Speed -    
Visibility 10 miles    
Events      
Averages and records for this station are not official NWS values.
T = Trace of Precipitation, MM = Missing Value Source: NWS Daily Summary

Daily Weather History Graph

Daily Weather History Graph

Search for Another Location

Airport or City:

Trip Planner

Search our weather history database for the weather conditions in past years. The results will help you decide how hot, cold, wet, or windy it might be!

Date:

Astronomy

Oct. 01, 2012 Rise Set
Actual Time 6:57 AM CDT 6:39 PM CDT
Civil Twilight 6:28 AM CDT 7:08 PM CDT
Nautical Twilight 5:55 AM CDT 7:41 PM CDT
Astronomical Twilight 5:20 AM CDT 8:15 PM CDT
Moon 7:09 PM CDT (10/1) 8:32 AM CDT (10/1)
Length of Visible Light 12h 39m
Length of Day
11h 41m
Full, 98% of the Moon is Illuminated
Oct 1
Full
Oct 8
Last Quarter
Oct 15
New
Oct 21
First Quarter
Oct 29
Full

Hourly Weather History & Observations

Time (CDT) Temp. Windchill Dew Point Humidity Pressure Visibility Wind Dir Wind Speed Gust Speed Precip Events Conditions
12:54 AM 48.0 °F - 41.0 °F 77% 29.96 in 10.0 mi SSW 3.5 mph - N/A   Clear
1:54 AM 46.9 °F - 39.9 °F 77% 29.95 in 10.0 mi South 4.6 mph - N/A   Clear
2:54 AM 45.0 °F 43.5 °F 39.0 °F 80% 29.93 in 10.0 mi South 3.5 mph - N/A   Clear
3:54 AM 46.0 °F - 39.0 °F 76% 29.92 in 10.0 mi Calm Calm - N/A   Clear
4:54 AM 42.1 °F - 39.0 °F 89% 29.92 in 10.0 mi Calm Calm - N/A   Clear
6:54 AM 41.0 °F - 37.9 °F 89% 29.93 in 10.0 mi Calm Calm - N/A   Clear
8:54 AM 51.1 °F - 41.0 °F 68% 29.94 in 10.0 mi South 5.8 mph - N/A   Clear
10:54 AM 60.1 °F - 42.1 °F 51% 29.92 in 10.0 mi South 6.9 mph - N/A   Clear
11:54 AM 63.0 °F - 43.0 °F 48% 29.90 in 10.0 mi SSW 5.8 mph - N/A   Clear
1:54 PM 69.1 °F - 42.1 °F 38% 29.86 in 10.0 mi SSW 8.1 mph - N/A   Clear
2:54 PM 70.0 °F - 42.1 °F 36% 29.85 in 10.0 mi SW 6.9 mph - N/A   Clear
3:54 PM 70.0 °F - 42.1 °F 36% 29.84 in 10.0 mi Calm Calm - N/A   Clear
4:54 PM 69.1 °F - 43.0 °F 39% 29.84 in 10.0 mi Calm Calm - N/A   Clear
5:54 PM 66.0 °F - 46.0 °F 48% 29.85 in 10.0 mi Calm Calm - N/A   Clear
6:54 PM 59.0 °F - 46.0 °F 62% 29.85 in 10.0 mi Calm Calm - N/A   Clear
7:54 PM 55.9 °F - 45.0 °F 67% 29.86 in 10.0 mi Calm Calm - N/A   Clear
8:54 PM 53.1 °F - 46.0 °F 77% 29.86 in 10.0 mi Calm Calm - N/A   Clear
9:54 PM 54.0 °F - 45.0 °F 72% 29.88 in 10.0 mi NE 6.9 mph - N/A   Clear
10:54 PM 53.1 °F - 46.9 °F 80% 29.90 in 10.0 mi North 6.9 mph - N/A   Clear
11:54 PM 54.0 °F - 48.0 °F 80% 29.89 in 10.0 mi North 8.1 mph - N/A   Clear